When you browse on this site, cookies collect data to enhance your experience and personalize the content and advertising you see.
Visit our Privacy Policy to learn more. By continuing to use the site, you agree to this use of cookies and data.
  • In Hungary
  • List of Countries
  • For 7 days
  • Water Temperature
  • Satellite Maps
  • Weather Map
  • News
  • Weather Widgets
  • user-avatar
    Login

    Hourly Weather Olympia

    Today, 25 April, Thursday

    Time Temperature Precipitation Wind Pressure Humidity
    00:00 +19°C° 0 mm 1 mps 764 mmHg 64%
    01:00 +18°C° 0 mm 1 mps 765 mmHg 62%
    02:00 +18°C° 0 mm 1 mps 765 mmHg 60%
    03:00 +18°C° 0 mm 1 mps 765 mmHg 59%
    04:00 +16°C° 0 mm 0 mps 765 mmHg 57%
    05:00 +20°C° 0 mm 1 mps 765 mmHg 55%
    06:00 +21°C° 0 mm 1 mps 765 mmHg 54%
    07:00 +23°C° 0 mm 1 mps 765 mmHg 51%
    08:00 +24°C° 0 mm 1 mps 765 mmHg 49%
    09:00 +25°C° 0 mm 1 mps 765 mmHg 46%
    10:00 +27°C° 0 mm 1 mps 765 mmHg 44%
    11:00 +27°C° 0.1 mm 1 mps 765 mmHg 43%
    12:00 +27°C° 0.1 mm 2 mps 765 mmHg 43%
    13:00 +28°C° 0.1 mm 2 mps 765 mmHg 43%
    14:00 +27°C° 0 mm 2 mps 764 mmHg 46%
    15:00 +27°C° 0 mm 2 mps 764 mmHg 48%
    16:00 +27°C° 0 mm 1 mps 764 mmHg 51%
    17:00 +25°C° 0 mm 1 mps 763 mmHg 55%
    18:00 +23°C° 0 mm 2 mps 763 mmHg 60%
    19:00 +21°C° 0 mm 2 mps 763 mmHg 64%
    20:00 +21°C° 0 mm 1 mps 763 mmHg 66%
    21:00 +21°C° 0 mm 1 mps 763 mmHg 68%
    22:00 +20°C° 0 mm 1 mps 764 mmHg 69%
    23:00 +20°C° 0 mm 1 mps 764 mmHg 70%

    Tomorrow, 26 April, Friday

    Time Temperature Precipitation Wind Pressure Humidity
    00:00 +20°C° 0 mm 1 mps 764 mmHg 70%
    01:00 +19°C° 0 mm 1 mps 763 mmHg 71%
    02:00 +19°C° 0 mm 1 mps 763 mmHg 69%
    03:00 +19°C° 0 mm 1 mps 763 mmHg 68%
    04:00 +19°C° 0 mm 1 mps 763 mmHg 67%
    05:00 +20°C° 0 mm 1 mps 763 mmHg 63%
    06:00 +22°C° 0 mm 1 mps 763 mmHg 59%
    07:00 +23°C° 0 mm 1 mps 763 mmHg 56%
    08:00 +25°C° 0 mm 1 mps 763 mmHg 50%
    09:00 +27°C° 0 mm 1 mps 763 mmHg 45%
    10:00 +29°C° 0 mm 1 mps 763 mmHg 40%
    11:00 +29°C° 0 mm 2 mps 762 mmHg 40%
    12:00 +29°C° 0 mm 3 mps 762 mmHg 39%
    13:00 +30°C° 0 mm 3 mps 762 mmHg 39%
    14:00 +29°C° 0 mm 3 mps 762 mmHg 41%
    15:00 +28°C° 0 mm 3 mps 761 mmHg 44%
    16:00 +27°C° 0 mm 3 mps 761 mmHg 46%
    17:00 +25°C° 0 mm 2 mps 761 mmHg 52%
    18:00 +23°C° 0 mm 2 mps 761 mmHg 58%
    19:00 +21°C° 0 mm 1 mps 761 mmHg 64%
    20:00 +20°C° 0 mm 1 mps 761 mmHg 66%
    21:00 +20°C° 0 mm 1 mps 761 mmHg 67%
    22:00 +20°C° 0 mm 1 mps 762 mmHg 69%
    23:00 +20°C° 0 mm 1 mps 761 mmHg 70%

    Day after tomorrow, 27 April, Saturday

    Time Temperature Precipitation Wind Pressure Humidity
    00:00 +19°C° 0 mm 1 mps 761 mmHg 71%
    01:00 +19°C° 0 mm 1 mps 761 mmHg 72%
    02:00 +19°C° 0 mm 1 mps 760 mmHg 73%
    03:00 +19°C° 0 mm 1 mps 760 mmHg 74%
    04:00 +18°C° 0 mm 1 mps 760 mmHg 74%
    05:00 +20°C° 0 mm 1 mps 760 mmHg 70%
    06:00 +22°C° 0 mm 1 mps 760 mmHg 65%
    07:00 +24°C° 0 mm 1 mps 760 mmHg 61%
    08:00 +25°C° 0 mm 1 mps 760 mmHg 57%
    09:00 +26°C° 0 mm 2 mps 760 mmHg 53%
    10:00 +27°C° 0 mm 2 mps 760 mmHg 50%
    11:00 +27°C° 0 mm 3 mps 760 mmHg 49%
    12:00 +28°C° 0 mm 3 mps 759 mmHg 48%
    13:00 +28°C° 0 mm 3 mps 759 mmHg 47%
    14:00 +27°C° 0 mm 4 mps 759 mmHg 49%
    15:00 +26°C° 0 mm 4 mps 759 mmHg 50%
    16:00 +26°C° 0 mm 4 mps 758 mmHg 52%
    17:00 +24°C° 0 mm 3 mps 758 mmHg 59%
    18:00 +20°C° 0 mm 3 mps 759 mmHg 66%
    19:00 +18°C° 0 mm 2 mps 759 mmHg 73%
    20:00 +18°C° 0 mm 2 mps 759 mmHg 74%
    21:00 +17°C° 0 mm 2 mps 759 mmHg 76%
    22:00 +17°C° 0 mm 2 mps 759 mmHg 77%
    23:00 +16°C° 0 mm 2 mps 759 mmHg 78%

    28 April, Sunday

    Time Temperature Precipitation Wind Pressure Humidity
    00:00 +16°C° 0 mm 2 mps 759 mmHg 78%
    01:00 +16°C° 0 mm 2 mps 759 mmHg 79%
    02:00 +16°C° 0 mm 2 mps 759 mmHg 80%
    03:00 +15°C° 0 mm 2 mps 759 mmHg 81%
    04:00 +15°C° 0 mm 2 mps 759 mmHg 82%
    05:00 +16°C° 0 mm 2 mps 759 mmHg 76%
    06:00 +18°C° 0 mm 2 mps 759 mmHg 71%
    07:00 +19°C° 0 mm 2 mps 759 mmHg 65%
    08:00 +21°C° 0 mm 2 mps 759 mmHg 58%
    09:00 +22°C° 0 mm 3 mps 759 mmHg 52%
    10:00 +24°C° 0 mm 3 mps 759 mmHg 45%
    11:00 +24°C° 0 mm 3 mps 759 mmHg 42%
    12:00 +25°C° 0 mm 4 mps 759 mmHg 39%
    13:00 +25°C° 0 mm 4 mps 758 mmHg 37%
    14:00 +23°C° 0 mm 4 mps 758 mmHg 38%
    15:00 +23°C° 0 mm 4 mps 758 mmHg 40%
    16:00 +22°C° 0 mm 4 mps 758 mmHg 42%
    17:00 +20°C° 0 mm 3 mps 758 mmHg 52%
    18:00 +18°C° 0 mm 3 mps 759 mmHg 62%
    19:00 +16°C° 0 mm 2 mps 759 mmHg 72%
    20:00 +15°C° 0 mm 2 mps 759 mmHg 74%
    21:00 +15°C° 0 mm 2 mps 759 mmHg 76%
    22:00 +14°C° 0 mm 1 mps 760 mmHg 79%
    23:00 +14°C° 0 mm 1 mps 759 mmHg 79%

    29 April, Monday

    Time Temperature Precipitation Wind Pressure Humidity
    00:00 +14°C° 0 mm 1 mps 759 mmHg 79%
    01:00 +13°C° 0 mm 1 mps 759 mmHg 80%
    02:00 +13°C° 0 mm 1 mps 759 mmHg 80%
    03:00 +13°C° 0 mm 1 mps 759 mmHg 81%
    04:00 +13°C° 0 mm 1 mps 759 mmHg 82%
    05:00 +14°C° 0 mm 1 mps 759 mmHg 75%
    06:00 +15°C° 0 mm 0 mps 759 mmHg 68%
    07:00 +17°C° 0 mm 0 mps 759 mmHg 61%
    08:00 +20°C° 0 mm 1 mps 759 mmHg 56%
    09:00 +21°C° 0 mm 2 mps 759 mmHg 50%
    10:00 +22°C° 0 mm 3 mps 759 mmHg 45%
    11:00 +22°C° 0 mm 3 mps 759 mmHg 45%
    12:00 +22°C° 0 mm 3 mps 759 mmHg 45%
    13:00 +22°C° 0 mm 3 mps 758 mmHg 45%
    14:00 +22°C° 0 mm 3 mps 758 mmHg 47%
    15:00 +21°C° 0 mm 3 mps 758 mmHg 50%
    16:00 +21°C° 0 mm 2 mps 758 mmHg 52%
    17:00 +19°C° 0 mm 2 mps 758 mmHg 60%
    18:00 +17°C° 0 mm 2 mps 758 mmHg 69%
    19:00 +15°C° 0 mm 1 mps 758 mmHg 77%
    20:00 +15°C° 0 mm 1 mps 758 mmHg 79%
    21:00 +14°C° 0 mm 1 mps 758 mmHg 81%
    22:00 +14°C° 0 mm 1 mps 759 mmHg 83%
    23:00 +14°C° 0 mm 1 mps 758 mmHg 83%

    30 April, Tuesday

    Time Temperature Precipitation Wind Pressure Humidity
    00:00 +13°C° 0 mm 1 mps 758 mmHg 83%
    01:00 +13°C° 0 mm 1 mps 758 mmHg 82%
    02:00 +13°C° 0 mm 1 mps 758 mmHg 81%
    03:00 +13°C° 0 mm 1 mps 758 mmHg 79%
    04:00 +13°C° 0 mm 1 mps 758 mmHg 78%
    05:00 +14°C° 0 mm 1 mps 758 mmHg 71%
    06:00 +16°C° 0 mm 1 mps 758 mmHg 63%
    07:00 +17°C° 0 mm 0 mps 758 mmHg 56%
    08:00 +20°C° 0 mm 1 mps 758 mmHg 52%
    09:00 +21°C° 0 mm 1 mps 758 mmHg 47%
    10:00 +23°C° 0 mm 2 mps 758 mmHg 43%
    11:00 +22°C° 0 mm 3 mps 758 mmHg 43%
    12:00 +22°C° 0 mm 3 mps 758 mmHg 43%
    13:00 +22°C° 0 mm 4 mps 757 mmHg 43%
    14:00 +22°C° 0 mm 4 mps 757 mmHg 45%
    15:00 +21°C° 0 mm 4 mps 757 mmHg 48%
    16:00 +20°C° 0 mm 4 mps 757 mmHg 50%
    17:00 +19°C° 0 mm 4 mps 757 mmHg 59%
    18:00 +17°C° 0 mm 3 mps 757 mmHg 69%
    19:00 +14°C° 0 mm 3 mps 758 mmHg 78%
    20:00 +13°C° 0 mm 3 mps 758 mmHg 81%
    21:00 +13°C° 0 mm 3 mps 758 mmHg 83%
    22:00 +13°C° 0 mm 2 mps 759 mmHg 85%
    23:00 +13°C° 0 mm 2 mps 758 mmHg 85%
    Show more